Regional Weather Roundup
Issued by NWS

Home | Current Version | Previous Version | Graphics & Text | Print | Product List | Glossary On
Versions: 1 2 3 4 5 6 7 8 9 10 11 12 13 14 15 16 17 18 19 20 21 22 23 24 25 26 27 28 29 30 31 32 33 34 35 36 37 38 39 40 41 42 43 44 45 46 47 48 49 50
000
ASUS45 KBOI 271810
RWRID
WEATHER ROUNDUP FOR IDAHO
NATIONAL WEATHER SERVICE BOISE ID
1100 AM MST THU NOV 27 2014

NOTE: "FAIR" INDICATES FEW OR NO CLOUDS BELOW 12000 FEET
WITH NO SIGNIFICANT WEATHER AND/OR OBSTRUCTIONS TO VISIBILITY

IDZ012-014-271900-
SOUTHWEST IDAHO


CITY           SKY/WX    TMP DP  RH WIND       PRES   REMARKS
BOISE          CLOUDY    53  37  54 SE12      30.13S
CALDWELL       NOT AVBL
MOUNTAIN HOME  CLOUDY    49  40  70 E15       30.16S
$$

IDZ016-017-271900-
SOUTHCENTRAL IDAHO


CITY           SKY/WX    TMP DP  RH WIND       PRES   REMARKS
BURLEY         PTSUNNY   56  34  43 SW8       30.22F
JEROME         PTSUNNY   56  30  37 SE8       30.22F
TWIN FALLS     CLOUDY    62  30  29 S9        30.22F
$$

IDZ019>023-271900-
SOUTHEAST IDAHO


CITY           SKY/WX    TMP DP  RH WIND       PRES   REMARKS
IDAHO FALLS    CLOUDY    45  33  63 SW12      30.20F
POCATELLO      MOSUNNY   55  29  36 SW16      30.23S
REXBURG        PTSUNNY   43  31  62 CALM      30.20F
$$

IDZ006-010-011-018-031-032-271900-
CENTRAL IDAHO MOUNTAINS


CITY           SKY/WX    TMP DP  RH WIND       PRES   REMARKS
MCCALL         CLOUDY    40  37  89 CALM      30.13S
HAILEY         MOSUNNY   48  32  53 W12       30.24F
STANLEY          N/A     41  32  70 SE12G18   30.24S
SALMON         CLOUDY    34  32  93 N3        30.12S
CHALLIS        PTSUNNY   42  30  62 CALM      30.16S
$$

IDZ002-004-006-007-026-271900-
NORTHERN IDAHO


CITY           SKY/WX    TMP DP  RH WIND       PRES   REMARKS
LEWISTON       SUNNY     52  43  71 NE5       29.93F
LOWELL           N/A     42  40  92 NW5       30.08S
COEUR D`ALENE  CLOUDY    52  39  62 N3        29.89R
MULLAN PASS    LGT RAIN  36  34  92 SW10G30   29.93S WCI  28
$$


USA.gov is the U.S. government's official web portal to all federal, state and local government web resources and services.